Total_Precipitation_Accumulation
1.25 1.18 1.19 1.16 1.12 1.09 1.11 1.24 1.50 1.38 0.93 0.70 0.71 0.75 0.80 0.86 0.86 0.82 0.75 0.82 0.87 0.95 1.06 1.13 1.22 1.42 1.79 2.37 3.00 3.92 4.55 4.21 3.42 2.90 2.86 3.20 3.68 4.15
1.35 1.34 1.22 1.13 1.16 1.19 1.23 1.20 1.26 1.39 1.15 0.69 0.61 0.67 0.78 0.94 1.03 0.89 0.84 0.94 0.94 0.94 0.96 0.99 1.09 1.28 1.54 1.86 2.30 2.90 3.82 4.30 4.08 3.58 3.22 3.34 3.61 4.04
1.31 1.36 1.27 1.17 1.25 1.30 1.36 1.36 1.29 1.31 1.33 0.86 0.68 0.72 0.92 1.05 1.11 1.02 1.00 0.97 0.92 0.95 0.95 1.00 1.04 1.17 1.39 1.61 1.85 2.23 2.90 3.65 4.10 4.14 3.85 3.62 3.63 3.73
1.31 1.33 1.33 1.26 1.27 1.31 1.40 1.40 1.31 1.23 1.30 1.13 0.89 0.89 1.00 1.13 1.16 1.13 1.11 1.07 0.93 0.94 0.95 1.03 1.08 1.15 1.30 1.47 1.63 1.87 2.26 2.79 3.38 3.85 4.00 3.70 3.56 3.60
1.25 1.30 1.32 1.32 1.26 1.24 1.33 1.38 1.32 1.27 1.29 1.30 1.08 0.97 1.05 1.20 1.33 1.33 1.27 1.24 1.10 1.04 1.00 1.05 1.13 1.15 1.22 1.36 1.55 1.70 1.88 2.06 2.47 3.12 3.72 3.79 3.56 3.54
1.14 1.16 1.24 1.38 1.38 1.38 1.41 1.39 1.43 1.49 1.46 1.44 1.29 1.15 1.18 1.27 1.44 1.51 1.51 1.42 1.32 1.17 1.16 1.17 1.21 1.23 1.21 1.22 1.28 1.40 1.57 1.88 2.22 2.69 3.17 3.54 3.55 3.49
1.12 1.04 1.13 1.39 1.60 1.76 1.81 1.67 1.68 1.83 1.80 1.74 1.60 1.43 1.31 1.37 1.49 1.48 1.56 1.49 1.46 1.35 1.26 1.23 1.16 1.14 1.12 1.14 1.18 1.24 1.35 1.57 1.88 2.22 2.63 2.99 3.25 3.40
1.20 1.07 1.08 1.34 1.51 1.67 1.82 1.79 1.80 1.97 2.08 2.03 1.87 1.61 1.30 1.20 1.28 1.48 1.69 1.88 1.84 1.53 1.37 1.36 1.16 1.15 1.11 1.04 1.17 1.25 1.30 1.45 1.66 1.90 2.20 2.51 2.82 3.15
1.16 1.11 1.13 1.22 1.36 1.38 1.52 1.58 1.58 1.72 1.95 2.06 2.01 1.59 1.37 1.27 1.48 1.73 1.77 1.89 1.79 1.68 1.66 1.72 1.38 1.25 1.13 1.15 1.27 1.25 1.30 1.37 1.48 1.63 1.86 2.11 2.39 2.73
1.21 1.13 1.06 1.10 1.23 1.40 1.50 1.48 1.38 1.42 1.63 1.81 2.00 1.79 1.58 1.61 1.92 2.20 2.29 2.29 2.02 1.87 1.82 2.03 1.67 1.41 1.29 1.25 1.31 1.24 1.22 1.26 1.32 1.41 1.56 1.78 2.01 2.33
1.24 1.15 1.03 1.00 1.22 1.41 1.38 1.36 1.29 1.31 1.42 1.61 1.78 1.86 1.87 2.00 2.30 2.73 2.91 2.89 2.59 2.24 1.99 2.02 1.92 1.74 1.70 1.66 1.56 1.43 1.25 1.18 1.21 1.26 1.34 1.49 1.73 2.09
1.24 1.19 1.24 1.21 1.33 1.35 1.25 1.33 1.44 1.31 1.23 1.27 1.34 1.40 1.44 1.58 1.99 2.42 2.79 2.93 2.70 2.59 2.23 2.04 2.02 2.05 2.43 2.21 1.83 1.52 1.34 1.28 1.21 1.20 1.22 1.26 1.42 1.57
1.26 1.25 1.20 1.36 1.38 1.34 1.31 1.29 1.47 1.40 1.29 1.35 1.33 1.26 1.25 1.35 1.53 1.86 2.38 2.78 2.81 2.56 2.23 2.30 2.43 2.11 2.28 2.35 2.07 1.66 1.33 1.23 1.15 1.18 1.18 1.18 1.22 1.26
1.26 1.17 1.15 1.34 1.38 1.40 1.37 1.42 1.47 1.44 1.34 1.37 1.31 1.22 1.23 1.31 1.45 1.65 1.93 2.25 2.39 2.30 2.09 2.28 2.70 2.36 2.12 1.97 1.93 1.85 1.50 1.30 1.14 1.09 1.08 1.24 1.30 1.31
1.41 1.43 1.37 1.46 1.48 1.38 1.35 1.40 1.36 1.27 1.34 1.39 1.29 1.14 1.09 1.20 1.31 1.43 1.54 1.75 1.94 1.99 2.01 2.09 2.36 2.39 2.26 2.02 1.67 1.56 1.55 1.56 1.30 1.14 1.09 1.10 1.11 1.12
1.56 1.54 1.52 1.53 1.50 1.43 1.36 1.25 1.15 1.18 1.28 1.29 1.22 1.11 1.03 1.08 1.20 1.31 1.42 1.53 1.80 1.94 1.98 2.09 2.33 2.56 2.51 1.92 1.64 1.45 1.29 1.57 1.51 1.25 1.14 1.10 1.03 0.93
1.63 1.67 1.61 1.56 1.54 1.42 1.24 1.10 1.07 1.14 1.20 1.13 1.14 1.15 1.12 1.11 1.12 1.18 1.35 1.47 1.67 1.77 1.93 2.19 2.43 2.54 2.59 2.32 1.98 1.55 1.25 1.25 1.33 1.26 1.18 1.21 1.21 1.06
1.66 1.65 1.48 1.31 1.26 1.20 1.12 1.05 1.02 1.03 1.02 1.05 1.11 1.11 1.10 1.12 1.13 1.12 1.24 1.41 1.55 1.62 1.72 1.94 2.29 2.59 2.74 2.74 2.29 1.70 1.36 1.28 1.37 1.34 1.22 1.23 1.35 1.27
1.44 1.31 1.20 1.14 1.09 1.04 0.99 0.97 0.96 0.92 0.92 1.00 1.05 1.07 1.05 1.09 1.12 1.14 1.19 1.31 1.44 1.55 1.67 1.78 2.04 2.40 2.58 2.71 2.70 2.07 1.59 1.42 1.48 1.61 1.45 1.23 1.23 1.30
1.14 1.13 1.12 1.09 1.10 1.10 1.05 1.00 0.95 0.93 0.95 0.96 0.98 0.99 1.02 1.10 1.13 1.10 1.13 1.25 1.35 1.46 1.60 1.71 1.93 2.20 2.38 2.31 2.40 2.37 2.11 1.70 1.53 1.69 1.66 1.44 1.34 1.45
1.05 1.06 1.06 1.08 1.12 1.13 1.07 1.01 0.99 0.95 0.91 0.92 0.91 0.89 0.92 1.02 1.06 1.01 1.07 1.19 1.28 1.38 1.49 1.59 1.76 1.96 2.11 2.13 2.07 2.06 2.22 2.20 1.76 1.63 1.67 1.67 1.62 1.60
1.02 1.05 1.05 1.08 1.12 1.13 1.09 1.03 1.01 0.96 0.91 0.90 0.87 0.85 0.86 0.93 0.99 1.00 1.05 1.13 1.16 1.23 1.35 1.47 1.59 1.79 2.01 2.16 2.09 1.93 2.04 2.24 2.20 1.93 1.73 1.65 1.70 1.75
1.08 1.09 1.09 1.08 1.07 1.08 1.07 1.02 0.98 0.95 0.91 0.89 0.86 0.85 0.88 0.92 0.92 0.98 1.02 1.04 1.08 1.12 1.21 1.40 1.57 1.73 1.93 2.07 2.09 1.94 1.87 1.98 2.03 2.01 2.10 1.84 1.45 1.28